This demonstration page uses our WeatherBlox Daily Observations layout. Learn more.

Left ArrowRight Arrow

Hourly Observations for April 24, 2021

Temp ( °F °C ) Dew Point ( °F °C ) Humidity (%) Winds ( mph kmh ) Pressure ( in mb ) Visibility ( mi km ) Precip ( " mm )
12:59 am 00:59 Partly Cloudy 50 10 36 2.2 59 59 S 3 6 30.12 1020 10 16 0.00 0.00
1:59 am 01:59 Partly Cloudy 49 9.4 36 2.2 61 61 SSW 6 9 30.11 1020 10 16 0.00 0.00
2:59 am 02:59 Mostly Clear 49 9.4 37 2.8 64 64 SSW 6 9 30.10 1019 10 16 0.00 0.00
3:59 am 03:59 Mostly Clear 49 9.4 38 3.3 66 66 Calm 30.10 1019 10 16 0.00 0.00
4:59 am 04:59 Mostly Clear 46 7.8 38 3.3 73 73 S 3 6 30.09 1019 10 16 0.00 0.00
5:59 am 05:59 Mostly Clear 47 8.3 39 3.9 74 74 WSW 3 6 30.11 1020 10 16 0.00 0.00
6:59 am 06:59 Cloudy 47 8.3 41 5 80 80 Calm 30.13 1020 10 16 0.00 0.00
7:59 am 07:59 Sunny 53 11.7 42 5.6 66 66 Calm 30.14 1021 10 16 0.00 0.00
8:59 am 08:59 Cloudy 58 14.4 42 5.6 56 56 Calm 30.13 1020 10 16 0.00 0.00
9:59 am 09:59 Cloudy 61 16.1 42 5.6 50 50 W 3 6 30.13 1020 10 16 0.00 0.00
10:59 am 10:59 Cloudy 64 17.8 42 5.6 45 45 Calm 30.11 1020 10 16 0.00 0.00
11:59 am 11:59 Cloudy 65 18.3 45 7.2 49 49 ENE 3 6 30.09 1019 10 16 0.00 0.00
12:59 pm 12:59 Cloudy 67 19.4 37 2.8 33 33 SSW 8 13 30.07 1018 10 16 0.00 0.00
1:59 pm 13:59 Cloudy 67 19.4 39 3.9 36 36 SSE 9 15 30.05 1018 10 16 0.00 0.00
2:59 pm 14:59 Cloudy 66 18.9 39 3.9 37 37 SSW 8 13 30.01 1016 10 16 0.00 0.00
3:59 pm 15:59 Cloudy with Light Rain 64 17.8 43 6.1 46 46 SSW 7 11 30.01 1016 10 16 0.00 0.00
4:59 pm 16:59 Cloudy with Light Rain 58 14.4 50 10 75 75 SSW 3 6 30.02 1017 4 6 0.03 0.76
5:59 pm 17:59 Cloudy with Light Rain 58 14.4 52 11.1 81 81 Calm 29.98 1015 8 13 0.02 0.51
6:59 pm 18:59 Cloudy with Light Rain 57 13.9 53 11.7 87 87 Calm 29.94 1014 5 8 0.00 0.00
7:59 pm 19:59 Cloudy with Light Rain 57 13.9 52 11.1 83 83 E 9 15 29.89 1012 8 13 0.01 0.25
8:59 pm 20:59 Cloudy with Light Rain 56 13.3 53 11.7 90 90 ESE 13 20 29.87 1012 4 6 0.03 0.76
9:18 pm 21:18 Cloudy with Light Rain 56 13.3 53 11.7 90 90 ESE 15 24 29.86 1011 3 5 0.01 0.25
9:23 pm 21:23 Cloudy with Light Rain 56 13.3 53 11.7 90 90 ESE 13 20 29.86 1011 4 6 0.02 0.51
9:59 pm 21:59 Cloudy with Light Rain 55 12.8 52 11.1 90 90 ESE 14 22 29.83 1010 4 6 0.03 0.76
10:59 pm 22:59 Cloudy with Light Rain 54 12.2 51 10.6 90 90 ESE 13 20 29.76 1008 8 13 0.02 0.51
11:59 pm 23:59 Cloudy with Light Rain 58 14.4 55 12.8 90 90 SE 10 17 29.71 1006 9 14 0.01 0.25

Powered by AerisWeather